VK2BOS Weather Reports


Display with metric or nautical units.
time (UTC)temp
F
wind
direction
speed
MPH
gust
MPH
rain 1hr
in
rain 24hr
in
rain mn
in
humidity
%
barometer
mb
20260505073003 62 0 0.0 0.0 0.00 0.00 0.00 74 1015.4
20260505072004 62 0 0.0 0.0 0.00 0.00 0.00 74 1015.4
20260505071003 62 0 0.0 0.0 0.00 0.00 0.00 74 1015.3
20260505070004 62 0 0.0 0.0 0.00 0.00 0.00 74 1015.1
20260505065004 62 0 0.0 0.0 0.00 0.00 0.00 74 1015.0
20260505064003 62 0 0.0 0.0 0.00 0.00 0.00 74 1014.8
20260505063004 62 0 0.0 0.0 0.00 0.00 0.00 74 1014.8
20260505062004 62 0 0.0 0.0 0.00 0.00 0.00 74 1014.7
20260505061003 62 0 0.0 0.0 0.00 0.00 0.00 74 1014.6
20260505060217 62 0 0.0 0.0 0.00 0.00 0.00 74 1014.7
20260505055004 62 0 0.0 0.0 0.00 0.00 0.00 74 1014.6
20260505054004 62 0 0.0 0.0 0.00 0.00 0.00 74 1014.6
20260505053214 62 0 0.0 0.0 0.00 0.00 0.00 74 1014.6
20260505052004 62 0 0.0 0.0 0.00 0.00 0.00 74 1014.6
20260505051004 62 0 0.0 0.0 0.00 0.00 0.00 74 1014.5
20260505041004 62 0 0.0 0.0 0.00 0.00 0.00 74 1013.9
20260505040004 62 0 0.0 0.0 0.00 0.00 0.00 74 1013.8
20260505035004 62 0 0.0 0.0 0.00 0.00 0.00 74 1013.8
20260505034004 62 0 0.0 0.0 0.00 0.00 0.00 74 1013.8
20260505033216 62 0 0.0 0.0 0.00 0.00 0.00 74 1013.9
20260505032004 62 0 0.0 0.0 0.00 0.00 0.00 74 1013.9
20260505031004 62 0 0.0 0.0 0.00 0.00 0.00 74 1014.0
20260505030004 62 0 0.0 0.0 0.00 0.00 0.00 74 1014.2
20260505025004 62 0 0.0 0.0 0.00 0.00 0.00 74 1014.3
20260505024216 62 0 0.0 0.0 0.00 0.00 0.00 74 1014.4
20260505023004 62 0 0.0 0.0 0.00 0.00 0.00 74 1014.4
20260505022003 62 0 0.0 0.0 0.00 0.00 0.00 74 1014.5
20260505021004 62 0 0.0 0.0 0.00 0.00 0.00 74 1014.6
20260505020004 62 0 0.0 0.0 0.00 0.00 0.00 74 1014.7
20260505015003 62 0 0.0 0.0 0.00 0.00 0.00 74 1015.0
20260505014004 62 0 0.0 0.0 0.00 0.00 0.00 74 1015.1
20260505013004 62 0 0.0 0.0 0.00 0.00 0.00 74 1015.2
20260505012004 62 0 0.0 0.0 0.00 0.00 0.00 74 1015.2
20260505011004 62 0 0.0 0.0 0.00 0.00 0.00 74 1015.4
20260505010005 62 0 0.0 0.0 0.00 0.00 0.00 74 1015.4
20260505005004 62 0 0.0 0.0 0.00 0.00 0.00 74 1015.5
20260505004004 62 0 0.0 0.0 0.00 0.00 0.00 74 1015.6
20260505003004 62 0 0.0 0.0 0.00 0.00 0.00 74 1016.0
20260505002004 62 0 0.0 0.0 0.00 0.00 0.00 74 1016.3
20260505001003 62 0 0.0 0.0 0.00 0.00 0.00 74 1016.4
20260505000004 62 0 0.0 0.0 0.00 0.00 0.00 74 1016.5
20260504235005 62 0 0.0 0.0 0.00 0.00 0.00 74 1016.6
20260504234003 62 0 0.0 0.0 0.00 0.00 0.00 74 1016.8
20260504233004 62 0 0.0 0.0 0.00 0.00 0.00 74 1016.9
20260504232004 62 0 0.0 0.0 0.00 0.00 0.00 74 1016.9
20260504231004 62 0 0.0 0.0 0.00 0.00 0.00 74 1017.0
20260504230004 62 0 0.0 0.0 0.00 0.00 0.00 74 1016.9
20260504225004 62 0 0.0 0.0 0.00 0.00 0.00 76 1016.9
20260504224003 60 0 0.0 0.0 0.00 0.00 0.00 77 1016.7
20260504223004 58 0 0.0 0.0 0.00 0.00 0.00 83 1016.5
20260504222004 56 0 0.0 0.0 0.00 0.00 0.00 85 1016.5
20260504221003 55 0 0.0 0.0 0.00 0.00 0.00 86 1016.3
20260504220004 54 0 0.0 0.0 0.00 0.00 0.00 85 1016.2
20260504215004 54 0 0.0 0.0 0.00 0.00 0.00 85 1016.0
20260504214003 60 0 0.0 0.0 0.00 0.00 0.00 92 1015.6
20260504213004 60 0 0.0 0.0 0.00 0.00 0.00 92 1015.5
20260504212004 60 0 0.0 0.0 0.00 0.00 0.00 92 1015.4
20260504211003 60 0 0.0 0.0 0.00 0.00 0.00 92 1015.1
20260504210004 60 0 0.0 0.0 0.00 0.00 0.00 92 1015.2
20260504205005 60 0 0.0 0.0 0.00 0.00 0.00 92 1015.1
20260504204004 60 0 0.0 0.0 0.00 0.00 0.00 92 1014.9
20260504203004 60 0 0.0 0.0 0.00 0.00 0.00 92 1014.9
20260504202004 60 0 0.0 0.0 0.00 0.00 0.00 92 1014.8
20260504201003 60 0 0.0 0.0 0.00 0.00 0.00 92 1014.7
20260504200004 60 0 0.0 0.0 0.00 0.00 0.00 92 1014.7
20260504195004 60 0 0.0 0.0 0.00 0.00 0.00 92 1014.5
20260504194004 60 0 0.0 0.0 0.00 0.00 0.00 92 1014.4
20260504193004 60 0 0.0 0.0 0.00 0.00 0.00 92 1014.3
20260504192217 60 0 0.0 0.0 0.00 0.00 0.00 92 1014.2
20260504191213 60 0 0.0 0.0 0.00 0.00 0.00 92 1014.1
20260504190004 60 0 0.0 0.0 0.00 0.00 0.00 92 1014.2
20260504185004 60 0 0.0 0.0 0.00 0.00 0.00 92 1014.1
20260504184003 60 0 0.0 0.0 0.00 0.00 0.00 92 1014.0
20260504183004 60 0 0.0 0.0 0.00 0.00 0.00 92 1013.9
20260504182004 60 0 0.0 0.0 0.00 0.00 0.00 92 1013.8
20260504181003 60 0 0.0 0.0 0.00 0.00 0.00 92 1013.6
20260504180003 60 0 0.0 0.0 0.00 0.00 0.00 92 1013.6
20260504175004 60 0 0.0 0.0 0.00 0.00 0.00 92 1013.6
20260504174216 60 0 0.0 0.0 0.00 0.00 0.00 92 1013.5
20260504173003 60 0 0.0 0.0 0.00 0.00 0.00 92 1013.5
20260504172004 60 0 0.0 0.0 0.00 0.00 0.00 92 1013.6
20260504171004 60 0 0.0 0.0 0.00 0.00 0.00 92 1013.6
20260504151004 60 0 0.0 0.0 0.00 0.00 0.00 92 1013.5
20260504141004 60 0 0.0 0.0 0.00 0.00 0.00 92 1013.5
20260504130217 60 0 0.0 0.0 0.00 0.00 0.00 92 1013.5
20260504082004 60 0 0.0 0.0 0.00 0.00 0.00 92 1011.7
20260504081003 60 0 0.0 0.0 0.00 0.00 0.00 92 1011.7